Regional Weather Roundup
Issued by NWS

Home | Current Version | Previous Version | Graphics & Text | Print | Product List | Glossary On
Versions: 1 2 3 4 5 6 7 8 9 10 11 12 13 14 15 16 17 18 19 20 21 22 23 24 25 26
000
ASUS45 KTFX 162110
RWRMT
MONTANA REGIONAL WEATHER ROUNDUP
NATIONAL WEATHER SERVICE GREAT FALLS MT
200 PM MST FRI FEB 16 2018

NOTE: "FAIR" INDICATES FEW OR NO CLOUDS BELOW 12000 FEET WITH NO
SIGNIFICANT WEATHER AND/OR OBSTRUCTIONS TO VISIBILITY.

MTZ001>007-043-162200-
WEST OF THE DIVIDE

CITY           SKY/WX    TMP DP  RH WIND       PRES   REMARKS
KALISPELL      SNOW      30  29  96 S12       29.84F VSB 1/2 WCI  20
MISSOULA       CLOUDY    33  25  72 CALM      29.90F
BUTTE          CLOUDY    29  11  47 SW12      29.86F WCI  19
MULLAN PASS    SNOW      21  19  92 VRB7      29.79F VSB 1/4 WCI  12
DEER LODGE       N/A     30  18  59 S8        29.87F WCI  23
EUREKA           N/A     30  27  86 MISG      29.85F
HAMILTON         N/A     36  18  48 SE17G23   29.92F WCI  25
PLAINS           N/A     37  23  57 CALM      29.91F
RONAN            N/A     34  23  64 S10       29.89F WCI  26
THOMPSON FALLS   N/A     33  29  86 SE2       29.96F
$$

MTZ008-052>055-162200-
SOUTHWEST MONTANA

CITY           SKY/WX    TMP DP  RH WIND       PRES   REMARKS
BOZEMAN        CLOUDY    32  14  47 SW16      29.90F WCI  21
DILLON         CLOUDY    25  12  58 SW18G30   29.92F WCI  11
ENNIS          CLOUDY    28  12  50 S21G29    29.98F WCI  15
W YELLOWSTONE  LGT SNOW  18  14  86 SW16G24   29.94F VSB 3/4 WCI   3
THREE FORKS      N/A     31  18  58 S33       29.88F WCI  16
TWIN BRIDGES     N/A     33  10  38 S20       29.92F WCI  21
$$

MTZ009-010-012-014-046-048-049-054-162200-
EAST SLOPES AND CENTRAL MONTANA

CITY           SKY/WX    TMP DP  RH WIND       PRES   REMARKS
CUT BANK       CLOUDY    29  21  72 W21       29.73F WCI  16
GREAT FALLS    FAIR      30  21  69 SW25      29.77F WCI  16
MALMSTROM AFB  FAIR      32  22  66 SW29      29.79F WCI  18
HELENA         CLOUDY    26  19  74 CALM      29.87F
AUGUSTA        PTSUNNY   30  15  53 W7        29.77F WCI  23
BOWMANS CRNR   PTSUNNY   28  20  71 S18       29.77F WCI  15
CONRAD           N/A    N/A N/A N/A SW20      29.79F
FAIRFIELD      FAIR      32  20  59 SW16      29.76F WCI  22
POWER          PTSUNNY   30  21  71 SW21      29.76F WCI  17
RAYNESFORD     PTSUNNY   32  17  54 SW32G45   29.76F WCI  17
ULM            PTSUNNY   30  22  73 SW29      29.78F WCI  15
WHITE SULPHUR    N/A     23  21  93 S15       29.82F FOG     WCI  10
$$

MTZ011-013-016-021-045-047-050-051-162200-
NORTH CENTRAL MONTANA

CITY           SKY/WX    TMP DP  RH WIND       PRES   REMARKS
HAVRE          CLOUDY    29  24  82 SW18      29.78F WCI  16
LEWISTOWN      CLOUDY    26  20  77 SW28      29.77F WCI  10
N BAR RANCH    FAIR      28  14  54 W17G25    29.78F WCI  16
CHINOOK          N/A     30  21  69 NW7       29.79F WCI  23
GEYSER         FAIR      30  19  62 W25G31    29.74F WCI  16
STANFORD       PTSUNNY   29  19  67 W31G41    29.74F WCI  13
WINIFRED       CLOUDY    30  21  68 W20       29.75F WCI  18
$$

MTZ017>020-022>027-061-062-162200-
NORTHEAST MONTANA

CITY           SKY/WX    TMP DP  RH WIND       PRES   REMARKS
GLASGOW        CLOUDY    22  13  68 CALM      29.80F
GLENDIVE       CLOUDY    23  15  71 W16       29.83F WCI  10
JORDAN           N/A     29  21  72 W6        29.82F WCI  23
MALTA          MOSUNNY   18  12  79 W13       29.79F WCI   4
SIDNEY         FAIR      26  18  71 S8        29.82F WCI  18
WOLF POINT     PTSUNNY   23  14  68 SW7       29.82F WCI  15
PLENTYWOOD       N/A     25  14  63 W17       29.74F WCI  11
POPLAR           N/A     21  12  68 W9        29.81F WCI  11
SCOBEY           N/A     24  12  60 W7        29.75F WCI  16
$$

MTZ028>42-056>058-162200-
SOUTHCENTRAL AND SOUTHEAST MONTANA

CITY           SKY/WX    TMP DP  RH WIND       PRES   REMARKS
BAKER          FAIR      24  14  65 W16       29.84F WCI  11
BILLINGS       CLOUDY    30  16  56 SW9       29.86F WCI  22
LIVINGSTON     FLURRIES  29  19  66 SW36G52   29.83F WCI  12
MILES CITY     CLOUDY    15   8  73 S6        29.86F WCI   6
BIG TIMBER     SUNNY     30  19  64 W25G32    29.86F WCI  16
FORSYTH          N/A     34  14  44 SW10      29.84F WCI  26
HARLOWTON      PTSUNNY   28  19  69 W24       29.81F WCI  14
LAUREL           N/A     28  16  59 SW9       29.87F WCI  20
$$

REGIONAL REPORTS...DAKOTAS

CITY           SKY/WX    TMP DP  RH WIND       PRES   REMARKS
WILLISTON      PTSUNNY   26  15  63 W20       29.79F WCI  12
MINOT          FAIR      27  14  58 W21G28    29.75F WCI  13
DICKINSON      FAIR      26  14  60 W14       29.80F WCI  14
BEACH          PTSUNNY   23  14  68 W16       29.85F WCI  10
CROSBY         FAIR      25  16  68 W16       29.74F WCI  12
TIOGA          FAIR      23  16  74 W18       29.75F WCI   9
WATFORD CITY   FAIR      28  16  59 W13G22    29.78F WCI  18
BISMARCK       FAIR      28  14  55 SW14      29.88F WCI  17
GRAND FORKS    CLOUDY    21  12  68 S22       29.89F WCI   5
FARGO          FAIR      24  10  55 S25G35    29.97F WCI   8
BUFFALO SD       N/A     26  15  63 W15       29.80F WCI  14
RAPID CITY     FAIR      37  17  44 S8        29.90F WCI  31
$$

REGIONAL REPORTS...WYOMING/IDAHO/WASHINGTON

CITY           SKY/WX    TMP DP  RH WIND       PRES   REMARKS
GILLETTE       FAIR      34  14  43 NW5       29.84F
SHERIDAN       PTSUNNY   30  12  47 N3        29.84F
BUFFALO WY     FAIR      32   6  33 SE5       29.83F
CODY           FAIR      35   7  31 W23G35    29.85F WCI  23
YELLOWSTONE LA   N/A     14   8  77 VRB5      29.94F
IDAHO FALLS    LGT SNOW  26  23  88 SW17G29   30.10F VSB 3/4 WCI  13
SALMON         CLOUDY    35  18  49 S16       29.99F WCI  25
BOISE          CLOUDY    38  21  50 CALM      30.22F
SPOKANE        PTSUNNY   36  33  89 SW28      29.94F WCI  23
$$

REGIONAL REPORTS...ALBERTA

CITY           SKY/WX    TMP DP  RH WIND       PRES   REMARKS
CALGARY        MOSUNNY   27  12  54 NE13      29.73S WCI  16
EDMONTON       CLOUDY    18   9  68 N16G24    29.81R WCI   3
FORT MCMURRAY  SUNNY      9  -4  56 VRB2      29.81F
HIGH LEVEL     MOSUNNY   12  -2  52 NW8       29.97S WCI   1
LETHBRIDGE     CLOUDY    32  19  59 W21G30    29.72F WCI  20
LLOYDMINSTER   FLURRIES  19  12  73 NW13      29.70F WCI   7
MEDICINE HAT   PTSUNNY   28  18  64 SW5       29.74F
MILK RIVER       N/A     32  21  64 W18         N/A  WCI  20
ONEFOUR          N/A     28  18  64 NW10        N/A  WCI  19
PEACE RIVER    PTSUNNY   16   1  53 NW13      29.98F WCI   2
PINCHER CREEK  CLOUDY    30  18  59 W18G28    29.71F WCI  18
WATERTON GATE    N/A     28  19  69 SW20G29     N/A  WCI  15
$$

REGIONAL REPORTS...SASKATCHEWAN

CITY           SKY/WX    TMP DP  RH WIND       PRES   REMARKS
CORONACH         N/A     21  14  73 W13         N/A  WCI   9
ESTEVAN        PTSUNNY   23  14  68 W14G21    29.72F WCI  11
MOOSE JAW        N/A     27  18  69 NW20        N/A  WCI  13
PRINCE ALBERT  PTSUNNY   14   5  67 NW7       29.70S WCI   4
REGINA         PTSUNNY   23  16  74 W17       29.70S WCI   9
ROCKGLEN         N/A     18  10  73 W12         N/A  WCI   5
SASKATOON      PTSUNNY   19  12  73 W15G22    29.71F WCI   5
SWIFT CURRENT  MOSUNNY   27  16  63 W16G22    29.69F WCI  14
VAL MARIE        N/A     18  10  73 NW5         N/A
$$




USA.gov is the U.S. government's official web portal to all federal, state and local government web resources and services.